�������l�o���
Date,Time,MP-1(��Sv/h),MP-2(��Sv/h),MP-3(��Sv/h),MP-4(��Sv/h),MP-5(��Sv/h),MP-6(��Sv/h),MP-7(��Sv/h),MP-8(��Sv/h),����,����(m/s),���J
2018/11/22,00:00,0.781,1.183,0.825,1.481,1.070,0.455,0.805,0.760,�k,3.6,��
2018/11/22,00:10,0.781,1.183,0.827,1.478,1.070,0.456,0.805,0.760,�k�k��,3.8,��
2018/11/22,00:20,0.781,1.185,0.828,1.478,1.066,0.456,0.805,0.760,�k�k��,4.8,��
2018/11/22,00:30,0.780,1.186,0.827,1.478,1.069,0.457,0.804,0.760,�k�k��,5.2,��
2018/11/22,00:40,0.783,1.184,0.830,1.480,1.068,0.456,0.803,0.759,�k�k��,5.8,��
2018/11/22,00:50,0.781,1.183,0.828,1.479,1.069,0.456,0.804,0.760,�k�k��,6.2,��
2018/11/22,01:00,0.780,1.185,0.828,1.480,1.069,0.457,0.804,0.760,�k�k��,6.1,��
2018/11/22,01:10,0.782,1.183,0.829,1.477,1.071,0.455,0.802,0.760,�k�k��,5.7,��
2018/11/22,01:20,0.782,1.184,0.829,1.479,1.069,0.457,0.804,0.760,�k�k��,5.1,��
2018/11/22,01:30,0.782,1.182,0.827,1.479,1.069,0.456,0.804,0.761,�k�k��,5.8,��
2018/11/22,01:40,0.781,1.185,0.828,1.479,1.071,0.455,0.804,0.760,�k�k��,6.3,��
2018/11/22,01:50,0.783,1.184,0.829,1.478,1.068,0.455,0.805,0.762,�k�k��,5.4,��
2018/11/22,02:00,0.781,1.184,0.828,1.478,1.070,0.455,0.804,0.760,�k��,4.6,��
2018/11/22,02:10,0.782,1.185,0.828,1.479,1.070,0.456,0.804,0.760,�k�k��,4.3,�L
2018/11/22,02:20,0.783,1.185,0.828,1.476,1.067,0.456,0.805,0.760,�k��,4.2,�L
2018/11/22,02:30,0.781,1.183,0.828,1.479,1.069,0.457,0.804,0.761,�k��,5.2,�L
2018/11/22,02:40,0.783,1.183,0.828,1.480,1.070,0.456,0.805,0.760,�k��,5.6,��
2018/11/22,02:50,0.782,1.185,0.827,1.480,1.069,0.456,0.803,0.761,�k��,5.4,��
2018/11/22,03:00,0.782,1.185,0.828,1.478,1.070,0.455,0.804,0.759,�k��,4.6,�L
2018/11/22,03:10,0.782,1.183,0.829,1.480,1.069,0.455,0.803,0.762,�k��,4.0,�L
2018/11/22,03:20,0.783,1.183,0.826,1.479,1.068,0.457,0.804,0.760,�k��,4.4,�L
2018/11/22,03:30,0.783,1.181,0.829,1.478,1.067,0.457,0.804,0.761,�k�k��,4.6,�L
2018/11/22,03:40,0.782,1.180,0.827,1.479,1.066,0.456,0.803,0.759,�k��,4.6,�L
2018/11/22,03:50,0.779,1.178,0.827,1.478,1.063,0.458,0.801,0.761,�k�k��,4.4,�L
2018/11/22,04:00,0.780,1.176,0.827,1.474,1.062,0.458,0.800,0.759,�k��,4.9,�L
2018/11/22,04:10,0.778,1.178,0.825,1.475,1.062,0.459,0.799,0.758,�k��,5.3,�L
2018/11/22,04:20,0.780,1.177,0.827,1.474,1.060,0.459,0.800,0.757,�k��,5.3,�L
2018/11/22,04:30,0.779,1.175,0.824,1.474,1.060,0.459,0.799,0.758,�k��,5.4,�L
2018/11/22,04:40,0.779,1.173,0.825,1.474,1.059,0.459,0.800,0.757,�k��,4.9,�L
2018/11/22,04:50,0.776,1.176,0.824,1.475,1.061,0.455,0.801,0.758,�k�k��,4.5,�L
2018/11/22,05:00,0.778,1.176,0.827,1.473,1.059,0.457,0.798,0.757,�k��,4.1,�L
2018/11/22,05:10,0.776,1.173,0.825,1.473,1.060,0.456,0.798,0.758,�k��,4.3,�L
2018/11/22,05:20,0.777,1.172,0.826,1.471,1.058,0.457,0.799,0.757,�k��,5.7,�L
2018/11/22,05:30,0.776,1.173,0.823,1.473,1.059,0.456,0.799,0.757,�k��,5.7,�L
2018/11/22,05:40,0.778,1.173,0.823,1.472,1.056,0.456,0.798,0.758,�k��,4.5,�L
2018/11/22,05:50,0.776,1.172,0.824,1.472,1.059,0.455,0.798,0.757,�k��,4.7,�L
2018/11/22,06:00,0.776,1.175,0.825,1.472,1.057,0.455,0.797,0.756,�k��,3.8,�L
2018/11/22,06:10,0.777,1.174,0.824,1.472,1.056,0.454,0.799,0.757,�k��,3.8,�L
2018/11/22,06:20,0.777,1.171,0.824,1.473,1.057,0.456,0.798,0.756,�k��,3.9,�L
2018/11/22,06:30,0.778,1.175,0.823,1.473,1.056,0.454,0.798,0.756,�k�k��,4.3,�L
2018/11/22,06:40,0.777,1.172,0.822,1.474,1.055,0.454,0.800,0.756,�k��,4.2,��
2018/11/22,06:50,0.776,1.174,0.821,1.473,1.056,0.455,0.799,0.758,�k�k��,3.6,��
2018/11/22,07:00,0.776,1.172,0.824,1.472,1.056,0.454,0.799,0.756,�k�k��,4.5,��
2018/11/22,07:10,0.775,1.172,0.823,1.471,1.057,0.452,0.800,0.755,�k��,4.2,�L
2018/11/22,07:20,0.774,1.172,0.824,1.473,1.058,0.454,0.799,0.756,�k��,3.4,�L
2018/11/22,07:30,0.775,1.170,0.821,1.471,1.055,0.453,0.800,0.755,�k��,2.8,��
2018/11/22,07:40,0.775,1.171,0.822,1.469,1.056,0.454,0.798,0.756,�k��,3.2,��
2018/11/22,07:50,0.775,1.170,0.823,1.468,1.054,0.454,0.798,0.756,�k��,2.5,��
2018/11/22,08:00,0.776,1.176,0.824,1.467,1.056,0.455,0.800,0.755,�k��,2.9,��
2018/11/22,08:10,0.774,1.167,0.821,1.470,1.055,0.456,0.801,0.756,�k��,3.0,��
2018/11/22,08:20,0.775,1.172,0.823,1.470,1.055,0.453,0.800,0.756,�k�k��,2.9,�L
2018/11/22,08:30,0.777,1.171,0.823,1.471,1.054,0.453,0.800,0.757,�k�k��,3.4,�L
2018/11/22,08:40,0.776,1.171,0.819,1.471,1.055,0.454,0.799,0.755,�k�k��,3.0,�L
2018/11/22,08:50,0.777,1.170,0.820,1.470,1.056,0.453,0.798,0.757,�k��,3.6,��
2018/11/22,09:00,0.776,1.171,0.820,1.474,1.054,0.452,0.797,0.757,�k�k��,5.2,��
2018/11/22,09:10,0.777,1.172,0.822,1.472,1.057,0.454,0.799,0.755,�k,6.2,��
2018/11/22,09:20,0.780,1.170,0.823,1.473,1.056,0.453,0.799,0.757,�k,5.3,��
2018/11/22,09:30,0.776,1.171,0.821,1.472,1.057,0.454,0.799,0.756,�k,5.5,��
2018/11/22,09:40,0.775,1.170,0.822,1.473,1.054,0.454,0.800,0.756,�k�k��,4.6,��
2018/11/22,09:50,0.776,1.170,0.821,1.472,1.056,0.454,0.798,0.757,�k�k��,4.5,��
2018/11/22,10:00,0.776,1.171,0.823,1.471,1.057,0.453,0.798,0.757,�k,4.6,��
2018/11/22,10:10,0.777,1.168,0.825,1.472,1.057,0.455,0.799,0.758,�k�k��,4.5,��
2018/11/22,10:20,0.778,1.169,0.823,1.474,1.058,0.454,0.799,0.756,�k�k��,3.6,��
2018/11/22,10:30,0.776,1.172,0.822,1.471,1.058,0.454,0.799,0.757,�k,3.9,��
2018/11/22,10:40,0.777,1.169,0.824,1.474,1.057,0.455,0.803,0.756,�k,4.7,��
2018/11/22,10:50,0.775,1.171,0.819,1.474,1.057,-,0.799,0.757,�k,5.0,��
2018/11/22,11:00,0.778,1.170,0.825,1.473,1.059,-,0.802,0.759,�k�k��,5.0,��
2018/11/22,11:10,0.777,1.173,0.822,1.474,1.058,-,0.799,0.757,�k,5.6,��
2018/11/22,11:20,0.777,1.172,0.823,1.472,1.057,-,0.800,0.759,�k�k��,5.3,��
2018/11/22,11:30,0.778,1.170,0.824,1.472,1.058,-,0.798,0.756,�k�k��,4.8,��
2018/11/22,11:40,0.778,1.174,0.825,1.472,1.059,-,0.800,0.759,�k�k��,4.2,��
2018/11/22,11:50,0.776,1.170,0.825,1.473,1.058,-,0.800,0.757,�k��,4.1,��
2018/11/22,12:00,0.779,1.172,0.824,1.470,1.057,-,0.801,0.757,�k�k��,4.0,��
2018/11/22,12:10,0.778,1.175,0.824,1.473,1.057,-,0.800,0.755,�k�k��,5.3,��
2018/11/22,12:20,0.779,1.172,0.824,1.474,1.060,-,0.798,0.761,�k�k��,5.0,��
2018/11/22,12:30,0.777,1.172,0.826,1.473,1.058,-,0.800,0.758,�k�k��,4.4,��
2018/11/22,12:40,0.779,1.171,0.825,1.474,1.061,-,0.800,0.758,�k�k��,4.8,��
2018/11/22,12:50,0.776,1.171,0.825,1.474,1.061,-,0.800,0.759,�k�k��,5.3,��
2018/11/22,13:00,0.779,1.173,0.823,1.473,1.059,-,0.801,0.758,�k�k��,3.8,��
2018/11/22,13:10,0.778,1.173,0.827,1.472,1.058,-,0.801,0.760,�k�k��,2.0,��
2018/11/22,13:20,0.778,1.173,0.823,1.476,1.058,-,0.801,0.759,�k�k��,2.3,��
2018/11/22,13:30,0.779,1.173,0.826,1.471,1.061,-,0.802,0.758,�k�k��,2.5,��
2018/11/22,13:40,0.777,1.173,0.825,1.474,1.058,-,0.800,0.758,�k�k��,3.3,��
2018/11/22,13:50,0.779,1.171,0.824,1.474,1.060,-,0.801,0.759,�k�k��,2.9,��
2018/11/22,14:00,0.778,1.166,0.826,1.473,1.063,-,0.800,0.759,�k�k��,3.1,��
2018/11/22,14:10,0.779,1.170,0.823,1.476,1.061,-,0.804,0.759,�k�k��,3.2,��
2018/11/22,14:20,0.779,1.170,0.825,1.473,1.062,0.454,0.802,0.760,�k,3.2,��
2018/11/22,14:30,0.779,1.172,0.825,1.474,1.060,0.455,0.801,0.758,�k�k��,2.9,��
2018/11/22,14:40,0.780,1.170,0.823,1.475,1.061,0.455,0.803,0.758,�k�k��,2.6,��
2018/11/22,14:50,0.776,1.171,0.826,1.475,1.061,0.455,0.801,0.759,�k,2.9,��
2018/11/22,15:00,0.775,1.174,0.823,1.474,1.060,0.455,0.802,0.760,�k�k��,3.2,��
2018/11/22,15:10,0.772,1.169,0.826,1.476,1.061,0.456,0.802,0.759,�k�k��,3.0,��
2018/11/22,15:20,0.770,1.171,0.826,1.477,1.060,0.457,0.800,0.760,�k�k��,3.0,��
2018/11/22,15:30,0.775,1.173,0.825,1.474,1.061,0.455,0.802,0.759,�k�k��,2.3,��
2018/11/22,15:40,0.780,1.173,0.824,1.473,1.061,0.455,0.800,0.757,�k��,2.5,��
2018/11/22,15:50,0.779,1.174,0.825,1.475,1.061,0.455,0.801,0.759,�k��,3.2,��
2018/11/22,16:00,0.778,1.178,0.825,1.473,1.060,0.455,0.804,0.761,�k��,2.3,��
2018/11/22,16:10,0.778,1.175,0.823,1.474,1.059,0.457,0.803,0.759,���k��,4.8,��
2018/11/22,16:20,0.778,1.175,0.824,1.475,1.061,0.454,0.802,0.758,���k��,4.6,��
2018/11/22,16:30,0.777,1.175,0.824,1.473,1.059,0.457,0.801,0.758,���k��,4.6,��
2018/11/22,16:40,0.778,1.172,0.826,1.474,1.061,0.454,0.803,0.757,���k��,4.6,��
2018/11/22,16:50,0.779,1.177,0.826,1.476,1.059,0.454,0.800,0.758,���k��,5.1,��
2018/11/22,17:00,0.778,1.176,0.825,1.478,1.058,0.454,0.803,0.758,���k��,4.7,��
2018/11/22,17:10,0.779,1.175,0.824,1.478,1.060,0.455,0.801,0.756,�k��,5.2,��
2018/11/22,17:20,0.780,1.176,0.824,1.478,1.060,0.454,0.806,0.758,�k��,5.9,�L
2018/11/22,17:30,0.780,1.178,0.826,1.479,1.059,0.455,0.802,0.758,�k�k��,5.0,�L
2018/11/22,17:40,0.780,1.178,0.826,1.473,1.059,0.456,0.801,0.758,�k�k��,5.4,�L
2018/11/22,17:50,0.778,1.175,0.825,1.476,1.060,0.455,0.800,0.756,�k��,8.2,��
2018/11/22,18:00,0.777,1.177,0.825,1.473,1.061,0.454,0.801,0.758,�k��,6.6,��
2018/11/22,18:10,0.778,1.176,0.824,1.474,1.061,0.454,0.802,0.757,�k��,5.9,��
2018/11/22,18:20,0.779,1.174,0.825,1.475,1.061,0.454,0.802,0.758,�k��,7.2,��
2018/11/22,18:30,0.779,1.177,0.824,1.475,1.061,0.453,0.799,0.758,�k��,6.9,��
2018/11/22,18:40,0.778,1.177,0.825,1.478,1.060,0.456,0.800,0.759,���k��,8.4,�L
2018/11/22,18:50,0.778,1.178,0.826,1.478,1.062,0.454,0.801,0.759,���k��,6.6,�L
2018/11/22,19:00,0.777,1.177,0.825,1.478,1.062,0.456,0.799,0.757,�k��,9.5,��
2018/11/22,19:10,0.779,1.177,0.824,1.478,1.063,0.456,0.802,0.759,�k��,9.2,��
2018/11/22,19:20,0.778,1.178,0.825,1.477,1.060,0.454,0.801,0.758,�k��,7.8,��
2018/11/22,19:30,0.778,1.175,0.824,1.475,1.059,0.454,0.802,0.760,���k��,6.4,��
2018/11/22,19:40,0.778,1.179,0.825,1.477,1.059,0.454,0.799,0.760,�k��,6.5,��
2018/11/22,19:50,0.779,1.179,0.825,1.478,1.061,0.453,0.802,0.759,�k��,6.5,��
2018/11/22,20:00,0.776,1.176,0.826,1.479,1.060,0.455,0.801,0.759,�k��,7.0,��
2018/11/22,20:10,0.778,1.175,0.825,1.478,1.060,0.454,0.802,0.759,�k��,6.2,��
2018/11/22,20:20,0.777,1.175,0.826,1.479,1.059,0.454,0.801,0.758,�k��,6.5,��
2018/11/22,20:30,0.777,1.174,0.825,1.479,1.060,0.454,0.802,0.759,�k��,7.2,��
2018/11/22,20:40,0.777,1.177,0.824,1.480,1.059,0.454,0.803,0.759,�k��,5.8,��
2018/11/22,20:50,0.776,1.180,0.825,1.477,1.060,0.453,0.803,0.758,�k��,5.9,��
2018/11/22,21:00,0.777,1.175,0.824,1.479,1.059,0.454,0.804,0.758,�k��,5.9,��
2018/11/22,21:10,0.778,1.176,0.825,1.476,1.060,0.454,0.803,0.757,�k��,6.5,��
2018/11/22,21:20,0.777,1.176,0.823,1.478,1.061,0.454,0.802,0.759,�k��,5.0,��
2018/11/22,21:30,0.777,1.176,0.824,1.478,1.061,0.456,0.803,0.757,�k��,4.1,��
2018/11/22,21:40,0.778,1.178,0.826,1.476,1.060,0.454,0.803,0.758,�k�k��,5.0,��
2018/11/22,21:50,0.778,1.177,0.824,1.480,1.060,0.454,0.804,0.760,�k�k��,5.4,��
2018/11/22,22:00,0.776,1.177,0.824,1.476,1.062,0.456,0.803,0.757,�k,6.2,��
2018/11/22,22:10,0.776,1.178,0.827,1.479,1.060,0.454,0.802,0.757,�k�k��,6.9,�L
2018/11/22,22:20,0.778,1.176,0.825,1.483,1.060,0.456,0.802,0.759,�k�k��,6.0,�L
2018/11/22,22:30,0.778,1.180,0.827,1.479,1.059,0.455,0.804,0.759,�k�k��,6.5,�L
2018/11/22,22:40,0.778,1.177,0.825,1.476,1.061,0.456,0.802,0.758,�k�k��,7.4,��
2018/11/22,22:50,0.777,1.176,0.826,1.476,1.060,0.454,0.802,0.759,�k��,7.6,��
2018/11/22,23:00,0.778,1.175,0.823,1.474,1.059,0.455,0.801,0.757,�k��,6.7,��
2018/11/22,23:10,0.776,1.176,0.826,1.477,1.057,0.455,0.803,0.756,�k��,8.6,��
2018/11/22,23:20,0.775,1.171,0.823,1.478,1.060,0.453,0.802,0.757,�k��,9.3,��
2018/11/22,23:30,0.776,1.173,0.823,1.478,1.061,0.454,0.802,0.758,�k��,9.2,��
2018/11/22,23:40,0.775,1.176,0.825,1.476,1.057,0.453,0.803,0.757,�k��,7.2,��
2018/11/22,23:50,0.776,1.174,0.822,1.477,1.059,0.454,0.800,0.757,�k��,5.0,��
